• In Österreich
  • Länderverzeichnis
  • Für 7 Tage
  • Wassertemperatur
  • Satellitenkarten
  • Wetterkarte
  • News
  • Widgets
  • user-avatar
    Anmelden

    Stündliche Wetter Novaya Sloboda

    Heute, 25 September, Dienstag

    Zeit Temperatur Niederschläge Wind Luftdruck Luftfeuchtigkeit
    00:00 +7°C° 1.7 mm 4 m/S 732 mmHg 94%
    01:00 +7°C° 1.7 mm 4 m/S 731 mmHg 94%
    02:00 +8°C° 0 mm 3 m/S 731 mmHg 93%
    03:00 +7°C° 1 mm 4 m/S 732 mmHg 93%
    04:00 +7°C° 1 mm 5 m/S 732 mmHg 92%
    05:00 +6°C° 1 mm 5 m/S 732 mmHg 92%
    06:00 +5°C° 0.5 mm 6 m/S 733 mmHg 91%
    07:00 +5°C° 0.5 mm 6 m/S 734 mmHg 90%
    08:00 +5°C° 0 mm 7 m/S 735 mmHg 88%
    09:00 +5°C° 0.4 mm 7 m/S 736 mmHg 87%
    10:00 +5°C° 0.4 mm 7 m/S 736 mmHg 86%
    11:00 +5°C° 0.4 mm 7 m/S 737 mmHg 84%
    12:00 +6°C° 0.5 mm 7 m/S 738 mmHg 83%
    13:00 +7°C° 0.5 mm 6 m/S 739 mmHg 81%
    14:00 +7°C° 0.5 mm 6 m/S 740 mmHg 79%
    15:00 +7°C° 0.2 mm 6 m/S 741 mmHg 79%
    16:00 +7°C° 0.2 mm 5 m/S 742 mmHg 78%
    17:00 +7°C° 0.2 mm 5 m/S 743 mmHg 78%
    18:00 +6°C° 0 mm 5 m/S 743 mmHg 79%
    19:00 +5°C° 0 mm 5 m/S 744 mmHg 80%
    20:00 +5°C° 0 mm 5 m/S 745 mmHg 81%
    21:00 +4°C° 0 mm 4 m/S 746 mmHg 82%
    22:00 +4°C° 0 mm 4 m/S 747 mmHg 82%
    23:00 +4°C° 0 mm 4 m/S 747 mmHg 83%

    Morgen, 26 September, Mittwoch

    Zeit Temperatur Niederschläge Wind Luftdruck Luftfeuchtigkeit
    00:00 +3°C° 0 mm 4 m/S 748 mmHg 83%
    01:00 +3°C° 0 mm 4 m/S 749 mmHg 83%
    02:00 +1°C° 0 mm 4 m/S 749 mmHg 82%
    03:00 +1°C° 0 mm 4 m/S 750 mmHg 82%
    04:00 +1°C° 0 mm 4 m/S 750 mmHg 82%
    05:00 +1°C° 0 mm 3 m/S 751 mmHg 82%
    06:00 +2°C° 0 mm 3 m/S 751 mmHg 79%
    07:00 +3°C° 0 mm 3 m/S 751 mmHg 76%
    08:00 +4°C° 0 mm 3 m/S 752 mmHg 73%
    09:00 +5°C° 0 mm 4 m/S 752 mmHg 71%
    10:00 +7°C° 0 mm 4 m/S 752 mmHg 68%
    11:00 +8°C° 0 mm 4 m/S 752 mmHg 65%
    12:00 +10°C° 0 mm 4 m/S 751 mmHg 63%
    13:00 +10°C° 0 mm 5 m/S 751 mmHg 61%
    14:00 +10°C° 0 mm 5 m/S 750 mmHg 59%
    15:00 +10°C° 0 mm 5 m/S 749 mmHg 62%
    16:00 +10°C° 0 mm 4 m/S 749 mmHg 64%
    17:00 +8°C° 0 mm 4 m/S 748 mmHg 67%
    18:00 +8°C° 0.2 mm 5 m/S 747 mmHg 69%
    19:00 +7°C° 0.2 mm 6 m/S 746 mmHg 70%
    20:00 +6°C° 0.2 mm 7 m/S 745 mmHg 72%
    21:00 +6°C° 1.1 mm 7 m/S 744 mmHg 77%
    22:00 +5°C° 1.1 mm 8 m/S 743 mmHg 81%
    23:00 +5°C° 1.1 mm 8 m/S 741 mmHg 85%

    übermorgen, 27 September, Donnerstag

    Zeit Temperatur Niederschläge Wind Luftdruck Luftfeuchtigkeit
    00:00 +5°C° 2 mm 8 m/S 740 mmHg 87%
    01:00 +5°C° 2 mm 8 m/S 739 mmHg 88%
    02:00 +5°C° 2 mm 7 m/S 738 mmHg 89%
    03:00 +5°C° 1.4 mm 7 m/S 737 mmHg 89%
    04:00 +6°C° 1.4 mm 7 m/S 736 mmHg 89%
    05:00 +6°C° 1.4 mm 7 m/S 735 mmHg 90%
    06:00 +7°C° 0.3 mm 6 m/S 736 mmHg 87%
    07:00 +8°C° 0.3 mm 6 m/S 736 mmHg 84%
    08:00 +8°C° 0.3 mm 5 m/S 736 mmHg 80%
    09:00 +8°C° 0.1 mm 6 m/S 736 mmHg 76%
    10:00 +9°C° 0.1 mm 6 m/S 737 mmHg 71%
    11:00 +9°C° 0.1 mm 7 m/S 737 mmHg 67%
    12:00 +9°C° 0.3 mm 7 m/S 737 mmHg 67%
    13:00 +9°C° 0.3 mm 7 m/S 737 mmHg 67%
    14:00 +8°C° 0.3 mm 7 m/S 738 mmHg 67%
    15:00 +8°C° 0.1 mm 6 m/S 738 mmHg 70%
    16:00 +7°C° 0.1 mm 5 m/S 739 mmHg 72%
    17:00 +7°C° 0.1 mm 4 m/S 739 mmHg 75%
    18:00 +6°C° 0 mm 4 m/S 739 mmHg 76%
    19:00 +6°C° 0 mm 4 m/S 740 mmHg 78%
    20:00 +5°C° 0 mm 4 m/S 740 mmHg 79%
    21:00 +5°C° 0 mm 4 m/S 741 mmHg 79%
    22:00 +5°C° 0 mm 4 m/S 741 mmHg 79%
    23:00 +5°C° 0 mm 4 m/S 741 mmHg 79%

    28 September, Freitag

    Zeit Temperatur Niederschläge Wind Luftdruck Luftfeuchtigkeit
    00:00 +4°C° 0 mm 4 m/S 741 mmHg 80%
    01:00 +4°C° 0 mm 4 m/S 741 mmHg 81%
    02:00 +4°C° 0 mm 4 m/S 742 mmHg 81%
    03:00 +4°C° 0 mm 4 m/S 741 mmHg 82%
    04:00 +4°C° 0 mm 4 m/S 741 mmHg 82%
    05:00 +4°C° 0 mm 3 m/S 741 mmHg 83%
    06:00 +4°C° 0.5 mm 3 m/S 740 mmHg 84%
    07:00 +4°C° 0.5 mm 3 m/S 739 mmHg 86%
    08:00 +4°C° 0.5 mm 3 m/S 738 mmHg 87%
    09:00 +5°C° 1.7 mm 4 m/S 737 mmHg 88%
    10:00 +7°C° 1.7 mm 5 m/S 735 mmHg 89%
    11:00 +8°C° 1.7 mm 6 m/S 734 mmHg 90%
    12:00 +8°C° 0.9 mm 6 m/S 734 mmHg 89%
    13:00 +8°C° 0.9 mm 6 m/S 734 mmHg 88%
    14:00 +8°C° 0.9 mm 6 m/S 734 mmHg 87%
    15:00 +7°C° 0.1 mm 5 m/S 735 mmHg 86%
    16:00 +6°C° 0.1 mm 5 m/S 736 mmHg 86%
    17:00 +3°C° 0.1 mm 5 m/S 737 mmHg 85%
    18:00 +3°C° 0 mm 5 m/S 739 mmHg 85%
    19:00 +3°C° 0 mm 4 m/S 740 mmHg 85%
    20:00 +1°C° 0 mm 4 m/S 742 mmHg 85%
    21:00 +1°C° 0 mm 4 m/S 743 mmHg 86%
    22:00 +2°C° 0 mm 3 m/S 743 mmHg 88%
    23:00 +1°C° 0 mm 3 m/S 744 mmHg 89%

    29 September, Samstag

    Zeit Temperatur Niederschläge Wind Luftdruck Luftfeuchtigkeit
    00:00 +1°C° 0 mm 3 m/S 745 mmHg 90%
    01:00 +1°C° 0 mm 3 m/S 745 mmHg 92%
    02:00 0°C° 0 mm 3 m/S 746 mmHg 93%
    03:00 0°C° 0 mm 3 m/S 746 mmHg 94%
    04:00 0°C° 0 mm 3 m/S 747 mmHg 94%
    05:00 -1°C° 0 mm 3 m/S 747 mmHg 94%
    06:00 0°C° 0 mm 3 m/S 748 mmHg 88%
    07:00 +1°C° 0 mm 3 m/S 749 mmHg 82%
    08:00 +2°C° 0 mm 3 m/S 749 mmHg 76%
    09:00 +3°C° 0 mm 4 m/S 750 mmHg 69%
    10:00 +4°C° 0 mm 4 m/S 750 mmHg 62%
    11:00 +5°C° 0 mm 4 m/S 751 mmHg 55%
    12:00 +5°C° 0 mm 4 m/S 751 mmHg 53%
    13:00 +5°C° 0 mm 4 m/S 751 mmHg 51%
    14:00 +6°C° 0 mm 4 m/S 752 mmHg 49%
    15:00 +5°C° 0 mm 3 m/S 752 mmHg 54%
    16:00 +3°C° 0 mm 3 m/S 752 mmHg 60%
    17:00 +3°C° 0 mm 2 m/S 753 mmHg 66%
    18:00 +3°C° 0 mm 2 m/S 753 mmHg 69%
    19:00 +2°C° 0 mm 2 m/S 754 mmHg 73%
    20:00 +1°C° 0 mm 2 m/S 754 mmHg 76%
    21:00 +1°C° 0 mm 2 m/S 755 mmHg 77%
    22:00 -1°C° 0 mm 2 m/S 755 mmHg 78%
    23:00 -1°C° 0 mm 2 m/S 756 mmHg 79%

    30 September, Sonntag

    Zeit Temperatur Niederschläge Wind Luftdruck Luftfeuchtigkeit
    00:00 -1°C° 0 mm 2 m/S 756 mmHg 79%
    01:00 -2°C° 0 mm 2 m/S 756 mmHg 79%
    02:00 -2°C° 0 mm 2 m/S 756 mmHg 79%
    03:00 -2°C° 0 mm 2 m/S 756 mmHg 78%
    04:00 -2°C° 0 mm 2 m/S 756 mmHg 77%
    05:00 -2°C° 0 mm 2 m/S 756 mmHg 77%
    06:00 0°C° 0 mm 3 m/S 755 mmHg 71%
    07:00 0°C° 0 mm 4 m/S 755 mmHg 66%
    08:00 +1°C° 0 mm 4 m/S 755 mmHg 61%
    09:00 +3°C° 0 mm 5 m/S 755 mmHg 59%
    10:00 +5°C° 0 mm 5 m/S 754 mmHg 57%
    11:00 +7°C° 0 mm 6 m/S 754 mmHg 55%
    12:00 +8°C° 0 mm 6 m/S 754 mmHg 54%
    13:00 +8°C° 0 mm 6 m/S 753 mmHg 54%
    14:00 +9°C° 0 mm 6 m/S 753 mmHg 54%
    15:00 +8°C° 0 mm 5 m/S 753 mmHg 59%
    16:00 +7°C° 0 mm 4 m/S 753 mmHg 64%
    17:00 +6°C° 0 mm 4 m/S 753 mmHg 69%
    18:00 +6°C° 0 mm 4 m/S 753 mmHg 71%
    19:00 +5°C° 0 mm 4 m/S 753 mmHg 73%
    20:00 +5°C° 0 mm 4 m/S 753 mmHg 75%
    21:00 +5°C° 0 mm 4 m/S 753 mmHg 75%
    22:00 +5°C° 0 mm 4 m/S 752 mmHg 76%
    23:00 +5°C° 0 mm 4 m/S 752 mmHg 77%
    Mehr zeigen